カタログに戻る

STARLINK-3979

運用中通信VLEO
NORAD 52608·PAYLOAD·🇺🇸 United States

打ち上げ May 14, 2022 から Cape Canaveral Space Force Station

Loading…

次のパス (今後24時間)

TLE

最新Source: CelesTrak SupGP

元期: Sep 14, 2026, 21:00 UTC

1 52608C 22052L   26257.87548611 -.00023722  00000+0 -67917-3 0  2571
2 52608  53.1579 142.3765 0001155  97.1751  78.8879 15.35388392    18

AllMySatでSTARLINK-3979をリアルタイム追跡

Download on the App Store